Plymouth, NH

2:31 AM EDT on March 28, 2017 (GMT -0400)
Plymouth

Weather History for K1P1 - November, 2013

Change the Weather History Date:

Sunday, November 24, 2013

  Actual Average (KLCI) Record (KLCI)
Temperature  
Mean Temperature 20 °F -  
Max Temperature 24 °F 42 °F 66 °F (1999)
Min Temperature 15 °F 25 °F 7 °F (1989)
Degree Days  
Heating Degree Days 46    
Moisture  
Dew Point 5 °F    
Average Humidity 56    
Maximum Humidity 77    
Minimum Humidity 43    
Precipitation  
Precipitation 0.00 in - - ()
Sea Level Pressure  
Sea Level Pressure 29.91 in    
Wind  
Wind Speed 15 mph (WNW)    
Max Wind Speed 28 mph    
Max Gust Speed 45 mph    
Visibility 9 miles    
Events Snow    
Averages and records for this station are not official NWS values.
T = Trace of Precipitation, MM = Missing Value Source: NWS Daily Summary

Daily Weather History Graph

Daily Weather History Graph

Search for Another Location

Airport or City:

Trip Planner

Search our weather history database for the weather conditions in past years. The results will help you decide how hot, cold, wet, or windy it might be!

Date:

Astronomy

Nov. 24, 2013 Rise Set
Actual Time 6:53 AM EST 4:14 PM EST
Civil Twilight 6:21 AM EST 4:45 PM EST
Nautical Twilight 5:45 AM EST 5:21 PM EST
Astronomical Twilight 5:11 AM EST 5:55 PM EST
Moon 10:43 PM EST (11/24) 11:33 AM EST (11/24)
Length of Visible Light 10h 24m
Length of Day
9h 21m
Waning Gibbous, 61% of the Moon is Illuminated
Nov 24
Waning Gibbous
Nov 25
Last Quarter
Dec 2
New
Dec 9
First Quarter
Dec 17
Full

Hourly Weather History & Observations

Time (EST) Temp. Windchill Dew Point Humidity Pressure Visibility Wind Dir Wind Speed Gust Speed Precip Events Conditions
12:15 AM 24.4 °F 14.9 °F 16.3 °F 71% 29.75 in 10.0 mi WNW 9.2 mph 19.6 mph N/A   Overcast
12:35 AM 23.9 °F 14.2 °F 14.9 °F 69% 29.75 in 10.0 mi WNW 9.2 mph 18.4 mph N/A   Overcast
12:55 AM 23.4 °F 12.8 °F 17.2 °F 77% 29.76 in 2.5 mi WNW 10.4 mph 19.6 mph N/A Snow Light Snow
1:15 AM 22.1 °F 8.9 °F 10.8 °F 62% 29.77 in 7.0 mi WNW 15.0 mph 23.0 mph N/A   Scattered Clouds
1:35 AM 21.2 °F 6.8 °F 9.5 °F 61% 29.78 in 10.0 mi WNW 17.3 mph 27.6 mph N/A   Clear
1:55 AM 20.8 °F 6.4 °F 9.1 °F 61% 29.79 in 10.0 mi WNW 17.3 mph 25.3 mph N/A   Clear
2:15 AM 20.3 °F 8.3 °F 9.3 °F 63% 29.79 in 10.0 mi West 11.5 mph 25.3 mph N/A   Scattered Clouds
2:35 AM 20.1 °F 9.5 °F 9.5 °F 63% 29.80 in 10.0 mi WNW 9.2 mph 16.1 mph N/A   Mostly Cloudy
2:55 AM 19.8 °F 8.3 °F 9.5 °F 64% 29.80 in 10.0 mi West 10.4 mph 21.9 mph N/A   Mostly Cloudy
3:15 AM 19.4 °F 6.6 °F 9.3 °F 65% 29.79 in 10.0 mi West 12.7 mph 26.5 mph N/A   Scattered Clouds
3:35 AM 19.6 °F 6.2 °F 9.1 °F 64% 29.78 in 10.0 mi West 13.8 mph 24.2 mph N/A   Mostly Cloudy
3:55 AM 19.4 °F 6.6 °F 9.3 °F 65% 29.78 in 10.0 mi West 12.7 mph 23.0 mph N/A   Scattered Clouds
4:15 AM 19.4 °F 5.5 °F 10.0 °F 67% 29.78 in 10.0 mi WNW 15.0 mph 26.5 mph N/A   Mostly Cloudy
4:35 AM 19.4 °F 6.0 °F 9.3 °F 65% 29.78 in 10.0 mi WNW 13.8 mph 19.6 mph N/A   Mostly Cloudy
4:55 AM 19.0 °F 6.1 °F 8.8 °F 64% 29.79 in 10.0 mi WNW 12.7 mph 18.4 mph N/A   Mostly Cloudy
5:15 AM 19.2 °F 11.3 °F 9.0 °F 64% 29.79 in 10.0 mi WNW 5.8 mph - N/A   Overcast
5:35 AM 18.5 °F 4.3 °F 11.1 °F 73% 29.80 in 5.0 mi WNW 15.0 mph 20.7 mph N/A Snow Light Snow
5:55 AM 18.1 °F 6.3 °F 10.9 °F 73% 29.81 in 7.0 mi NW 10.4 mph 24.2 mph N/A Snow Light Snow
6:15 AM 18.1 °F 3.4 °F 6.4 °F 60% 29.81 in 10.0 mi West 16.1 mph 29.9 mph N/A   Mostly Cloudy
6:35 AM 17.6 °F 2.7 °F 5.5 °F 59% 29.82 in 10.0 mi West 16.1 mph 24.2 mph N/A   Scattered Clouds
6:55 AM 17.2 °F 2.2 °F 6.6 °F 63% 29.83 in 10.0 mi West 16.1 mph 24.2 mph N/A   Scattered Clouds
7:15 AM 16.7 °F 1.0 °F 7.0 °F 66% 29.83 in 10.0 mi WNW 17.3 mph 27.6 mph N/A   Mostly Cloudy
7:35 AM 17.1 °F 4.3 °F 6.6 °F 64% 29.84 in 10.0 mi WNW 11.5 mph 25.3 mph N/A   Overcast
7:55 AM 16.9 °F 2.3 °F 7.0 °F 65% 29.86 in 5.0 mi West 15.0 mph 25.3 mph N/A   Haze
8:15 AM 16.9 °F -0.1 °F 7.5 °F 67% 29.85 in 5.0 mi West 20.7 mph 28.8 mph N/A   Haze
8:35 AM 17.1 °F 1.0 °F 7.2 °F 65% 29.86 in 7.0 mi West 18.4 mph 27.6 mph N/A   Overcast
8:55 AM 17.4 °F 2.9 °F 7.7 °F 66% 29.86 in - West 15.0 mph - N/A   Unknown
9:15 AM 18.0 °F 3.1 °F 8.2 °F 66% 29.86 in 10.0 mi West 16.1 mph 25.3 mph N/A   Overcast
9:35 AM 18.5 °F 3.8 °F 8.1 °F 64% 29.86 in 10.0 mi West 16.1 mph 31.1 mph N/A   Overcast
9:55 AM 18.5 °F 4.3 °F 8.1 °F 64% 29.87 in 7.0 mi WNW 15.0 mph 31.1 mph N/A   Overcast
10:15 AM 18.5 °F 4.3 °F 7.9 °F 63% 29.87 in 7.0 mi WNW 15.0 mph 25.3 mph N/A   Overcast
10:35 AM 18.7 °F 3.6 °F 7.9 °F 63% 29.87 in 10.0 mi West 17.3 mph 27.6 mph N/A   Overcast
10:55 AM 18.5 °F 2.4 °F 7.7 °F 63% 29.88 in 10.0 mi West 19.6 mph 32.2 mph N/A   Overcast
11:15 AM 18.9 °F 3.8 °F 7.2 °F 60% 29.88 in 10.0 mi West 17.3 mph 27.6 mph N/A   Overcast
11:35 AM 19.2 °F 4.3 °F 6.8 °F 59% 29.89 in 10.0 mi WNW 17.3 mph 29.9 mph N/A   Overcast
11:55 AM 18.9 °F 3.3 °F 5.9 °F 57% 29.88 in 10.0 mi West 18.4 mph 32.2 mph N/A   Overcast
12:15 PM 19.8 °F 5.9 °F 5.9 °F 55% 29.89 in 10.0 mi WNW 15.0 mph 28.8 mph N/A   Overcast
12:35 PM 20.1 °F 3.8 °F 4.6 °F 51% 29.89 in 10.0 mi WNW 21.9 mph 29.9 mph N/A   Overcast
12:55 PM 20.1 °F 8.1 °F 4.1 °F 50% 29.89 in 10.0 mi West 11.5 mph 32.2 mph N/A   Overcast
1:15 PM 20.3 °F 4.4 °F 3.7 °F 49% 29.90 in 10.0 mi WNW 20.7 mph 35.7 mph N/A   Overcast
1:35 PM 20.5 °F 6.9 °F 3.7 °F 48% 29.91 in 10.0 mi WNW 15.0 mph 35.7 mph N/A   Overcast
1:55 PM 20.3 °F 3.3 °F 2.7 °F 47% 29.91 in 10.0 mi West 24.2 mph 33.4 mph N/A   Overcast
2:15 PM 21.0 °F 4.3 °F 2.7 °F 45% 29.92 in 10.0 mi WNW 24.2 mph 36.8 mph N/A   Overcast
2:35 PM 20.3 °F 5.2 °F 2.1 °F 45% 29.94 in 10.0 mi WNW 18.4 mph 38.0 mph N/A   Overcast
2:55 PM 20.3 °F 2.6 °F 1.9 °F 45% 29.94 in 10.0 mi NW 26.5 mph 44.9 mph N/A   Mostly Cloudy
3:15 PM 20.3 °F 2.3 °F 1.6 °F 44% 29.95 in 7.0 mi WNW 27.6 mph 43.7 mph N/A   Overcast
3:35 PM 20.1 °F 3.8 °F 1.6 °F 45% 29.96 in 10.0 mi WNW 21.9 mph 35.7 mph N/A   Mostly Cloudy
3:55 PM 19.9 °F 4.8 °F 1.2 °F 44% 29.96 in 10.0 mi WNW 18.4 mph 27.6 mph N/A   Mostly Cloudy
4:15 PM 19.6 °F 3.9 °F 1.8 °F 46% 29.97 in 10.0 mi WNW 19.6 mph 29.9 mph N/A   Scattered Clouds
4:35 PM 19.4 °F 2.8 °F 1.2 °F 45% 29.98 in 10.0 mi NW 21.9 mph 29.9 mph N/A   Scattered Clouds
4:55 PM 19.6 °F 4.7 °F 0.5 °F 43% 29.99 in 10.0 mi WNW 17.3 mph 41.4 mph N/A   Scattered Clouds
5:15 PM 19.4 °F 1.8 °F 0.5 °F 44% 29.99 in 10.0 mi NW 25.3 mph 36.8 mph N/A   Clear
5:35 PM 19.2 °F 2.6 °F 0.9 °F 45% 30.00 in 10.0 mi WNW 21.9 mph 28.8 mph N/A   Scattered Clouds
5:55 PM 19.4 °F 4.5 °F 0.5 °F 44% 30.01 in 10.0 mi WNW 17.3 mph 36.8 mph N/A   Scattered Clouds
6:15 PM 19.2 °F 5.8 °F 0.5 °F 44% 30.02 in 10.0 mi WNW 13.8 mph 24.2 mph N/A   Scattered Clouds
6:35 PM 19.0 °F 4.0 °F 0.5 °F 44% 30.02 in 10.0 mi WNW 17.3 mph 31.1 mph N/A   Scattered Clouds
6:55 PM 18.9 °F 2.1 °F 0.5 °F 45% 30.02 in 10.0 mi WNW 21.9 mph 38.0 mph N/A   Clear
7:15 PM 18.5 °F -0.1 °F -0.2 °F 44% 30.03 in 10.0 mi WNW 27.6 mph 41.4 mph N/A   Clear
7:35 PM 18.5 °F 2.4 °F 0.5 °F 45% 30.03 in 10.0 mi WNW 19.6 mph 35.7 mph N/A   Clear
7:55 PM 18.0 °F 0.6 °F 1.2 °F 48% 30.04 in 10.0 mi WNW 23.0 mph 34.5 mph N/A   Clear
8:15 PM 17.6 °F 1.7 °F 1.6 °F 50% 30.04 in 10.0 mi WNW 18.4 mph 34.5 mph N/A   Clear
8:35 PM 17.4 °F 1.9 °F 1.8 °F 50% 30.05 in 10.0 mi WNW 17.3 mph 27.6 mph N/A   Clear
8:55 PM 17.4 °F 2.4 °F 0.9 °F 48% 30.07 in 10.0 mi WNW 16.1 mph 33.4 mph N/A   Scattered Clouds
9:15 PM 17.1 °F 1.5 °F 0.5 °F 48% 30.08 in 10.0 mi WNW 17.3 mph 33.4 mph N/A   Scattered Clouds
9:35 PM 16.7 °F 1.0 °F 0.7 °F 49% 30.09 in 10.0 mi WNW 17.3 mph 29.9 mph N/A   Scattered Clouds
9:55 PM 16.3 °F 0.1 °F 0.3 °F 49% 30.10 in 10.0 mi West 18.4 mph 34.5 mph N/A   Scattered Clouds
10:15 PM 16.0 °F 1.7 °F 0.3 °F 50% 30.09 in 10.0 mi West 13.8 mph 25.3 mph N/A   Clear
10:35 PM 15.8 °F -0.6 °F -0.0 °F 50% 30.09 in 10.0 mi West 18.4 mph 28.8 mph N/A   Clear
10:55 PM 15.6 °F 1.2 °F -0.4 °F 49% 30.10 in 10.0 mi West 13.8 mph 28.8 mph N/A   Clear
11:15 PM 15.6 °F 0.1 °F -0.4 °F 49% 30.12 in 10.0 mi WNW 16.1 mph 34.5 mph N/A   Clear
11:35 PM 15.6 °F 0.6 °F -0.6 °F 49% 30.14 in 10.0 mi WNW 15.0 mph 25.3 mph N/A   Clear
11:55 PM 15.4 °F 4.6 °F -0.8 °F 49% 30.14 in 10.0 mi WNW 8.1 mph 25.3 mph N/A   Clear